Regional Weather Roundup
Issued by NWS Wakefield, VA

Home | Current Version | Previous Version | Text Only | Print | Product List | Glossary Off
Versions: 1 2 3 4 5 6 7 8 9 10 11 12 13 14 15 16 17 18 19 20 21 22 23 24 25 26 27

000
ASUS41 KAKQ 291115
RWRAKQ

REGIONAL WEATHER ROUNDUP
NATIONAL WEATHER SERVICE WAKEFIELD VA
700 AM EDT THU SEP 29 2016

Note: "fair" indicates few or no clouds below 12,000 feet with no
significant weather and/or obstructions to visibility. * = Denotes
station may not report precipitation (e.g., rain,snow,etc.),
thunder or fog.

VAZ042-051-052>054-056-291200-
NORTHERN VIRGINIA

CITY           SKY/WX    TMP DP  RH WIND       PRES   REMARKS
WASH NATIONAL  LGT RAIN  68  67  96 E18       30.08R
DULLES         LGT RAIN  66  64  93 E16G24    30.05S
FORT BELVOIR   LGT RAIN  68  64  88 VRB7      30.06R
QUANTICO       LGT RAIN  69  66  90 E14       30.05F
FREDERICKSBRG* CLOUDY    68  68 100 NE5       30.04R
STAFFORD*      CLOUDY    67  67  99 E12       30.10R
WARRENTON      CLOUDY    67  62  84 E6        30.05R
CULPEPER*      CLOUDY    67  67  98 E3        30.06R
MANASSAS*      CLOUDY    66  66 100 E9        30.05R
LEESBURG*      HVY RAIN  66  66 100 E8        30.07S
WINCHESTER     RAIN      63  63 100 N5        30.07
FRONT ROYAL*   CLOUDY    61  61 100 NW3       30.05R
LURAY*         CLOUDY   N/A N/A N/A N8        30.04R
$$

VAZ048-049-060>072-079>083-291200-
CENTRAL AND SOUTH CENTRAL VIRGINIA

CITY           SKY/WX    TMP DP  RH WIND       PRES   REMARKS
RICHMOND       CLOUDY    67  65  93 E9        30.00R
CHESTERFIELD*  FAIR      66  54  63 W10       30.03R
PETERSBURG*    LGT RAIN N/A N/A N/A CALM      30.00S
HANOVER        NOT AVBL
TAPPAHANNOCK*  TSTM      68  68 100 CALM      30.06R
QUINTON*       FAIR      68  68  99 E13       30.00F
CHARLOTTSVILLE CLOUDY    68  66  93 NE6       30.02R FOG
GORDONSVILLE*  CLOUDY    66  66 100 E3        30.03R
ORANGE*          N/A     68  68 100 CALM      30.06R
LOUISA*        CLOUDY    70  68  94 E3        30.02R
BUMPASS*       PTSUNNY   66  66 100 CALM      30.05R
FARMVILLE*     CLOUDY    67  66  97 CALM      29.99S
CREWE*         PTSUNNY   65  65 100 CALM      30.00R
FORT PICKETT*  FAIR     N/A N/A N/A E5        30.01R
CHASE CITY*    FAIR      64  63  95 CALM      30.00R
CLARKSVILLE*   PTSUNNY   64  64 100 CALM      29.99R
SOUTH HILL*    CLOUDY    66  66 100 CALM      30.05R
LAWRENCEVILLE* CLOUDY    69  68  97 SE6       30.00R
EMPORIA*       CLOUDY    70  70 100 SE5       30.02R FOG
$$

VAZ088>098-291200-
SOUTHEAST VIRGINIA

CITY           SKY/WX    TMP DP  RH WIND       PRES   REMARKS
NORFOLK        CLOUDY    73  72  96 CALM      30.03R
VIRGINIA BEACH MOCLDY    70  69  97 E3        30.02R FOG
NORFOLK NAVAL  CLOUDY    73  71  93 CALM      30.05R
WEST POINT*    CLOUDY    69  68  98 CALM      30.05R
SALUDA*        CLOUDY    71  71 100 E7        30.04S
NEWPORT NEWS   CLOUDY    70  67  90 NE7       30.03R
LANGLEY AFB    CLOUDY    72  72 100 N2        30.03R
FORT EUSTIS    CLOUDY    69  67  94 E6        30.01R
WILLIAMSBURG*  CLEAR     70  68  94 CALM      30.04R
HR EXEC AP*    PTSUNNY   70  68  94 E6        30.04R
FRANKLIN*      PTCLDY    69  69  98 CALM      30.02R
US460-WAKEFLD  MOCLDY    70  69  97 E7        30.01F
$$

VAZ020-022-025-037-045-291200-
WEST CENTRAL AND SOUTHWEST VIRGINIA

CITY           SKY/WX    TMP DP  RH WIND       PRES   REMARKS
STAUNTON*      CLOUDY    61  60  99 CALM      30.06R
WAYNESBORO*    CLOUDY    62  61  97 CALM      30.04R
HOT SPRINGS VA HVY RAIN  57  57 100 E8        30.08R VSB<1/4
LYNCHBURG      CLOUDY    65  64  97 NE6       30.02R
DANVILLE       MOCLDY    65  64  97 CALM      29.99R
SOUTH BOSTON*  CLOUDY    64  62  95 CALM      29.99S
MARTINSVILLE   CLOUDY    64  62  94 CALM      30.02R
ROANOKE        DRIZZLE   65  64  97 SE6       30.03R
BLACKSBURG     CLOUDY    62  62  99 NE3       30.05R FOG
DUBLIN*        CLOUDY    59  57  93 CALM      30.03R
MARION*        CLOUDY    56  52  87 E5        30.04R
HILLSVILLE*    FOG       58  58 100 NE6       30.01R VSB 1/4
RICHLANDS*     CLOUDY    53  51  92 NE5       30.01R
WISE*          CLOUDY    54  50  87 CALM      30.01R
ABINGDON*      LGT RAIN  56  52  88 E6        29.99S
$$

MDZ021>025-VAZ099-100-291200-
SOUTHERN MARYLAND AND THE DELMARVA PENINSULA

CITY           SKY/WX    TMP DP  RH WIND       PRES   REMARKS
PATUXENT RIVER LGT RAIN  69  66  90 E15       30.07R
BAY BRIDGE APT CLOUDY    66  64  94 MISG      30.11S
LEONARDTOWN    CLOUDY    68  64  88 E7        30.09R
DOVER          LGT RAIN  66  66 100 E21G36    30.13R
GEORGETOWN     RAIN      68  68 100 E12G24    30.13R
EASTON         CLOUDY    68  66  94 E13G20    30.14R
CAMBRIDGE      CLOUDY    66  64  94 E13G20    30.09R
SALISBURY      LGT RAIN  69  68  96 E13       30.10S
OCEAN CITY     RAIN     N/A N/A N/A E24G37    30.09R
WALLOPS ISLAND CLOUDY    71  70  96 NE26G33   30.07S
ACCOMACK*      CLOUDY    70  67  89 NE10      30.06R
$$

NCZ012>017-030>032-291200-
NORTH CENTRAL AND EASTERN NORTH CAROLINA

CITY           SKY/WX    TMP DP  RH WIND       PRES   REMARKS
ROANOKE RAPIDS CLOUDY    68  68 100 CALM      30.01R FOG
RALEIGH        CLOUDY    66  64  93 SE6       29.97R
ELIZABETH CITY PTCLDY    73  72  96 E6        30.02R
AHOSKIE*       FOG       70  70  99 E3        30.01R VSB 1/2
EDENTON*       CLEAR     74  74 100 E3        30.01R
CURRITUCK*     NOT AVBL
KILL DEVIL HLS MOCLDY    74  74 100 E3        30.01R
MANTEO         MOCLDY    73  73 100 E3        30.02R
CAPE HATTERAS  PTCLDY    73  70  90 E5        30.00R
TARBORO*       FOG       69  68  99 CALM      30.01R VSB 1/2
GOLDSBORO      RAIN      66  66 100 NW7       29.99S FOG
WASHINGTON     PTCLDY    69  69  98 CALM      30.01R
GREENVILLE     MOCLDY    68  68 100 CALM      30.01S FOG
NEW BERN       FOG       67  66  97 N5        30.00R VSB 3/4
WILMINGTON     PTCLDY    76  72  87 SE5       29.95S
$$

VAZ048-291200-
ELSEWHERE

CITY           SKY/WX    TMP DP  RH WIND       PRES   REMARKS
HARRISBURG PA  LGT RAIN  60  58  92 E15       30.15R
BALTIMORE      CLOUDY    65  63  93 E16G25    30.10S
ANNAPOLIS      CLOUDY    69  66  90 E16G25    30.10R
ANDREWS AFB    LGT RAIN  66  64  94 E10       30.09R FOG
PHILADELPHIA   LGT RAIN  63  61  93 E13       30.20S
HENDERSON NC   LGT RAIN  63  60  90 CALM      29.97R
GREENSBORO     CLOUDY    65  65 100 E6        29.97R
ROCKY MOUNT    LGT RAIN  68  68 100 W7        30.02R
$$

VAZ100-291200-
MARINE

STATION/POSITION TIME  TEMP    WIND        PRES    WAVE   SWELL
                       AIR SEA DIR/SP/G            HT/PER HT/PER
                 (UTC) (F)     (DEG/KT/KT) (MB)    (FT/S) (FT/S)
BRANDYWINE LGT   1048   67      80/ 29/ 34   N/A
CAPE MAY NJ      1042   67 71   60/ 12/ 20 1020.3R
LEWES DE         1048   68 71   90/ 23/ 29 1019.9R
OCEAN-CITY-INLET 1048   69 72  100/ 18/ 28 1019.3R
WACHAPREAGUE VA  1048   71 74   20/  8/ 11 1017.7R
THOMAS POINT MD  1100   68 73   80/ 27/ 30 1019.7R
GOOSES REEF MD   1050   70     110/ 17/ 21 1018.6R
COVE POINT MD    1048   69     110/ 19/ 24 1018.6R
SOLOMONS ISLAND  1048   70 74   80/ 18/ 22   N/A
BISHOPS HEAD MD  1048   70 70   80/ 15/ 18 1018.3R
PINEY POINT MD   1048          100/ 15/ 18   N/A
POTOMAC MD       1050   72      90/ 19/ 21 1016.9R
CAMBRIDGE MD     1048   69 73   70/ 16/ 19 1018.0R
LEWISETTA VA     1048   72 72  100/ 20/ 22 1017.2R
RAPPAHANNOCK LGT 1048           50/ 16/ 17 1017.8R
STINGRAY PT      1050   74      20/ 16/ 19 1017.1R
YORK RVR RNG VA  1048   72      70/ 12/ 14 1016.3F
YORKTOWN VA      1048   71 76   50/  8/  9 1016.5R
JAMESTOWN VA     1050   71      30/  2/  4   N/A
DOMINION TERM VA 1048   73      60/  4/  5 1016.9R
KIPTOPEKE VA     1048      75   70/  8/ 10   N/A
CHES BAY BRIDGE  1048   75 76   60/ 10/ 11 1016.6R
CAPE HENRY VA    1048   75      80/  9/ 11   N/A
WILLOUBY STN VA  1048   75      CALM  /  2   N/A
CAPE HENRY BUOY  1042      76                N/A     5/ 8   2/11
1ST LANDING BUOY 1050   75     110/ 10/ 12 1016.5R
CAPE CHARLES BUO 1026      76                N/A     4/ 7   2/11
OFFSHORE WE BUOY 1021      75                N/A     6/ 8   2/11
64NM E OF VA BCH 1050   76 74  100/  6/  8 1016.6R   5/ 8   5/ 8
DUCK PIER NC     1048   76 76  100/  9/ 10 1015.9R
44056 DUCK FRF   1041      76                N/A     4/ 8   2/11
OREGON INLET NC  1048   76 77   50/  4/  5 1016.0R
HATTERAS NC      1048   76 78   80/  5/  7 1015.5R
DIAMOND SHLS NC  1050   77 81   80/  4/  6 1015.3R   3/11   3/11
CAPE LOOKOUT NC  1000   78     120/  4/  5 1014.7R
$$




USA.gov is the U.S. government's official web portal to all federal, state and local government web resources and services.